When you browse on this site, cookies collect data to enhance your experience and personalize the content and advertising you see.
Visit our Privacy Policy to learn more. By continuing to use the site, you agree to this use of cookies and data.
  • în România
  • Lista ţărilor
  • Pe 7 zile
  • Temperatura apei
  • Meteo pe hartă
  • Widget-uri
  • user-avatar
    Intrare

    Meteo pe oră la Gubin

    Astăzi, 18 Septembrie, Miercuri

    Timp Temperatura Precipitaţii Vânt Presiune Umiditate
    00:00 +7°C° 0 mm 6 m/s 757 mmHg 75%
    01:00 +7°C° 0 mm 6 m/s 758 mmHg 76%
    02:00 +7°C° 0 mm 6 m/s 758 mmHg 77%
    03:00 +7°C° 0 mm 6 m/s 758 mmHg 78%
    04:00 +7°C° 0 mm 6 m/s 758 mmHg 79%
    05:00 +7°C° 0 mm 6 m/s 759 mmHg 79%
    06:00 +7°C° 0 mm 5 m/s 760 mmHg 79%
    07:00 +7°C° 0 mm 5 m/s 760 mmHg 79%
    08:00 +9°C° 0 mm 5 m/s 760 mmHg 72%
    09:00 +12°C° 0 mm 5 m/s 761 mmHg 65%
    10:00 +13°C° 0 mm 6 m/s 761 mmHg 58%
    11:00 +13°C° 0 mm 6 m/s 761 mmHg 57%
    12:00 +13°C° 0 mm 6 m/s 761 mmHg 57%
    13:00 +11°C° 0 mm 6 m/s 761 mmHg 57%
    14:00 +13°C° 0 mm 6 m/s 761 mmHg 56%
    15:00 +13°C° 0 mm 5 m/s 762 mmHg 55%
    16:00 +13°C° 0 mm 5 m/s 762 mmHg 54%
    17:00 +12°C° 0 mm 4 m/s 762 mmHg 57%
    18:00 +11°C° 0 mm 4 m/s 762 mmHg 60%
    19:00 +11°C° 0 mm 3 m/s 762 mmHg 62%
    20:00 +10°C° 0 mm 3 m/s 762 mmHg 63%
    21:00 +10°C° 0 mm 3 m/s 763 mmHg 64%
    22:00 +9°C° 0 mm 3 m/s 763 mmHg 65%
    23:00 +9°C° 0 mm 3 m/s 763 mmHg 65%

    Mâine, 19 Septembrie, Joi

    Timp Temperatura Precipitaţii Vânt Presiune Umiditate
    00:00 +9°C° 0 mm 3 m/s 763 mmHg 66%
    01:00 +8°C° 0 mm 4 m/s 763 mmHg 66%
    02:00 +7°C° 0 mm 4 m/s 763 mmHg 72%
    03:00 +7°C° 0 mm 4 m/s 763 mmHg 78%
    04:00 +6°C° 0 mm 4 m/s 763 mmHg 84%
    05:00 +6°C° 0 mm 4 m/s 763 mmHg 83%
    06:00 +7°C° 0 mm 4 m/s 764 mmHg 82%
    07:00 +7°C° 0 mm 4 m/s 764 mmHg 81%
    08:00 +8°C° 0 mm 4 m/s 764 mmHg 75%
    09:00 +11°C° 0 mm 4 m/s 765 mmHg 69%
    10:00 +12°C° 0 mm 4 m/s 765 mmHg 64%
    11:00 +13°C° 0 mm 4 m/s 765 mmHg 60%
    12:00 +13°C° 0 mm 4 m/s 765 mmHg 56%
    13:00 +14°C° 0 mm 5 m/s 765 mmHg 52%
    14:00 +14°C° 0 mm 5 m/s 765 mmHg 52%
    15:00 +14°C° 0 mm 5 m/s 765 mmHg 52%
    16:00 +14°C° 0 mm 5 m/s 765 mmHg 53%
    17:00 +12°C° 0 mm 4 m/s 765 mmHg 58%
    18:00 +11°C° 0 mm 3 m/s 766 mmHg 64%
    19:00 +9°C° 0 mm 3 m/s 766 mmHg 70%
    20:00 +9°C° 0 mm 3 m/s 766 mmHg 71%
    21:00 +9°C° 0 mm 3 m/s 766 mmHg 73%
    22:00 +9°C° 0 mm 3 m/s 766 mmHg 74%
    23:00 +8°C° 0 mm 2 m/s 766 mmHg 76%

    Poimâine, 20 Septembrie, Vineri

    Timp Temperatura Precipitaţii Vânt Presiune Umiditate
    00:00 +8°C° 0 mm 2 m/s 766 mmHg 78%
    01:00 +8°C° 0 mm 2 m/s 766 mmHg 80%
    02:00 +7°C° 0 mm 2 m/s 766 mmHg 82%
    03:00 +7°C° 0 mm 2 m/s 766 mmHg 85%
    04:00 +6°C° 0 mm 2 m/s 766 mmHg 88%
    05:00 +6°C° 0 mm 2 m/s 766 mmHg 86%
    06:00 +7°C° 0 mm 2 m/s 766 mmHg 84%
    07:00 +7°C° 0 mm 2 m/s 766 mmHg 82%
    08:00 +9°C° 0 mm 2 m/s 766 mmHg 76%
    09:00 +12°C° 0 mm 2 m/s 767 mmHg 70%
    10:00 +13°C° 0 mm 2 m/s 767 mmHg 64%
    11:00 +14°C° 0 mm 2 m/s 767 mmHg 60%
    12:00 +15°C° 0 mm 2 m/s 766 mmHg 57%
    13:00 +15°C° 0 mm 2 m/s 766 mmHg 54%
    14:00 +15°C° 0 mm 2 m/s 766 mmHg 55%
    15:00 +15°C° 0 mm 2 m/s 766 mmHg 55%
    16:00 +15°C° 0 mm 1 m/s 766 mmHg 55%
    17:00 +14°C° 0 mm 1 m/s 766 mmHg 62%
    18:00 +12°C° 0 mm 1 m/s 766 mmHg 69%
    19:00 +10°C° 0 mm 0 m/s 766 mmHg 75%
    20:00 +9°C° 0 mm 0 m/s 766 mmHg 77%
    21:00 +9°C° 0 mm 0 m/s 766 mmHg 78%
    22:00 +9°C° 0 mm 0 m/s 766 mmHg 80%
    23:00 +8°C° 0 mm 0 m/s 766 mmHg 81%

    21 Septembrie, Sâmbătă

    Timp Temperatura Precipitaţii Vânt Presiune Umiditate
    00:00 +9°C° 0 mm 1 m/s 766 mmHg 82%
    01:00 +9°C° 0 mm 1 m/s 766 mmHg 83%
    02:00 +8°C° 0 mm 1 m/s 766 mmHg 83%
    03:00 +8°C° 0 mm 1 m/s 766 mmHg 84%
    04:00 +8°C° 0 mm 1 m/s 766 mmHg 84%
    05:00 +8°C° 0 mm 1 m/s 766 mmHg 82%
    06:00 +9°C° 0 mm 1 m/s 766 mmHg 79%
    07:00 +8°C° 0 mm 2 m/s 765 mmHg 77%
    08:00 +12°C° 0 mm 2 m/s 766 mmHg 68%
    09:00 +14°C° 0 mm 2 m/s 766 mmHg 58%
    10:00 +16°C° 0 mm 2 m/s 766 mmHg 49%
    11:00 +17°C° 0 mm 2 m/s 765 mmHg 45%
    12:00 +19°C° 0 mm 2 m/s 765 mmHg 41%
    13:00 +20°C° 0 mm 2 m/s 765 mmHg 37%
    14:00 +20°C° 0 mm 2 m/s 764 mmHg 38%
    15:00 +20°C° 0 mm 2 m/s 764 mmHg 38%
    16:00 +20°C° 0 mm 2 m/s 763 mmHg 38%
    17:00 +18°C° 0 mm 2 m/s 763 mmHg 45%
    18:00 +16°C° 0 mm 2 m/s 763 mmHg 52%
    19:00 +14°C° 0 mm 2 m/s 763 mmHg 58%
    20:00 +13°C° 0 mm 2 m/s 763 mmHg 61%
    21:00 +13°C° 0 mm 2 m/s 762 mmHg 64%
    22:00 +12°C° 0 mm 2 m/s 762 mmHg 67%
    23:00 +12°C° 0 mm 2 m/s 762 mmHg 67%

    22 Septembrie, Duminică

    Timp Temperatura Precipitaţii Vânt Presiune Umiditate
    00:00 +10°C° 0 mm 2 m/s 762 mmHg 68%
    01:00 +10°C° 0 mm 2 m/s 761 mmHg 68%
    02:00 +10°C° 0 mm 2 m/s 761 mmHg 69%
    03:00 +10°C° 0 mm 2 m/s 760 mmHg 70%
    04:00 +9°C° 0 mm 3 m/s 760 mmHg 71%
    05:00 +10°C° 0 mm 3 m/s 760 mmHg 68%
    06:00 +10°C° 0 mm 3 m/s 759 mmHg 66%
    07:00 +11°C° 0 mm 3 m/s 759 mmHg 63%
    08:00 +13°C° 0 mm 3 m/s 759 mmHg 56%
    09:00 +15°C° 0 mm 4 m/s 759 mmHg 50%
    10:00 +18°C° 0 mm 4 m/s 759 mmHg 43%
    11:00 +20°C° 0 mm 4 m/s 758 mmHg 42%
    12:00 +21°C° 0 mm 4 m/s 757 mmHg 40%
    13:00 +22°C° 0 mm 4 m/s 757 mmHg 39%
    14:00 +22°C° 0 mm 4 m/s 756 mmHg 41%
    15:00 +22°C° 0 mm 3 m/s 756 mmHg 42%
    16:00 +22°C° 0 mm 3 m/s 755 mmHg 44%
    17:00 +20°C° 0 mm 3 m/s 755 mmHg 50%
    18:00 +18°C° 0 mm 3 m/s 755 mmHg 55%
    19:00 +16°C° 0 mm 2 m/s 755 mmHg 61%
    20:00 +16°C° 0 mm 3 m/s 755 mmHg 60%
    21:00 +16°C° 0 mm 3 m/s 755 mmHg 59%
    22:00 +14°C° 0 mm 3 m/s 755 mmHg 58%
    23:00 +14°C° 0 mm 3 m/s 754 mmHg 58%

    23 Septembrie, Luni

    Timp Temperatura Precipitaţii Vânt Presiune Umiditate
    00:00 +15°C° 0 mm 2 m/s 754 mmHg 58%
    01:00 +15°C° 0 mm 2 m/s 754 mmHg 58%
    02:00 +15°C° 0 mm 2 m/s 754 mmHg 57%
    03:00 +15°C° 0 mm 2 m/s 754 mmHg 56%
    04:00 +16°C° 0 mm 2 m/s 753 mmHg 56%
    05:00 +16°C° 0 mm 2 m/s 753 mmHg 58%
    06:00 +16°C° 0 mm 2 m/s 753 mmHg 60%
    07:00 +15°C° 0 mm 2 m/s 753 mmHg 61%
    08:00 +17°C° 0 mm 2 m/s 753 mmHg 60%
    09:00 +19°C° 0 mm 3 m/s 753 mmHg 58%
    10:00 +21°C° 0 mm 3 m/s 753 mmHg 56%
    11:00 +21°C° 0 mm 3 m/s 753 mmHg 59%
    12:00 +22°C° 0 mm 3 m/s 753 mmHg 62%
    13:00 +22°C° 0 mm 3 m/s 753 mmHg 65%
    14:00 +21°C° 0.3 mm 4 m/s 753 mmHg 73%
    15:00 +19°C° 0.3 mm 4 m/s 753 mmHg 81%
    16:00 +17°C° 0.3 mm 5 m/s 753 mmHg 88%
    17:00 +17°C° 0.9 mm 4 m/s 753 mmHg 90%
    18:00 +17°C° 0.9 mm 4 m/s 753 mmHg 91%
    19:00 +15°C° 0.9 mm 4 m/s 753 mmHg 93%
    20:00 +15°C° 0.4 mm 4 m/s 753 mmHg 92%
    21:00 +15°C° 0.4 mm 4 m/s 754 mmHg 92%
    22:00 +16°C° 0.4 mm 3 m/s 754 mmHg 92%
    23:00 +15°C° 0.1 mm 4 m/s 754 mmHg 91%
    Arată mai mult